Location: Newark
(20.0000°S, 47.0000°E)
Time: 02:08:47
(UTC+00:00)

Envisat - Pass Details

Date: 27 June 2019
Orbit: 764 x 766 km, 98.1° (Epoch: 23 July)

Event Time Altitude Azimuth Distance (km) Brightness Sun altitude
Exits shadow 16:43:05 17° 211° (SSW) 1,872 5.1 -31.8°
Maximum altitude 16:45:43 26° 253° (WSW) 1,490 4.9 -32.4°
Drops below altitude 10° 16:49:51 10° 308° (NW) 2,298 6.2 -33.3°
Sets 16:52:29 0° 321° (NW) 3,217 6.9 -33.9°
